DateTimeUTC,F1_A11,F1_S11,BsB_S11,BsG_S11,BsR_S11,BbsB_S11,BbsG_S11,BbsR_S11,BaB_A11,BaG_A11,BaR_A11,Tu_S11,T_S11,Uu_S11,U_S11,P_S11,T1_A11
2021-06-10T02:00:00Z,00000200,20000000,,,,,,,0000.09,-000.13,-000.20,18.3,25.2,05.3,03.5,0663.8,31.1
2021-06-10T02:01:00Z,00000200,20000000,,,,,,,0000.08,0000.47,0000.34,18.3,25.2,05.3,03.5,0663.8,31.1
2021-06-10T02:02:00Z,00000200,20000000,,,,,,,-000.07,-000.06,-000.10,18.3,25.2,05.4,03.5,0663.8,31.1
2021-06-10T02:03:00Z,00000200,60000000,,,,,,,-000.12,0000.16,0000.26,18.3,25.3,05.4,03.5,0663.8,31.0
2021-06-10T02:04:00Z,00000200,40000000,0001.38,0000.47,0000.52,0000.55,-000.02,0000.10,0000.37,0000.28,0000.10,18.4,25.1,05.3,03.5,0664.7,31.0
2021-06-10T02:05:00Z,00000200,00000000,0001.58,0000.53,0000.55,-000.16,0000.29,-000.11,0000.29,0000.24,0000.18,18.4,25.0,05.3,03.6,0664.7,31.1
2021-06-10T02:06:00Z,00000200,00000000,0000.80,0000.57,0000.34,0000.02,0000.28,-000.04,0000.38,0000.53,0000.25,18.4,25.0,05.3,03.6,0664.7,31.0
2021-06-10T02:07:00Z,00000200,00000000,0000.89,0000.60,0000.42,0000.35,0000.21,0000.10,0000.31,0000.21,0000.20,18.4,25.0,05.4,03.6,0664.7,31.0
2021-06-10T02:08:00Z,00000200,00000000,0001.37,0000.51,0000.51,0000.39,0000.03,0000.05,0000.75,0000.37,0000.00,18.4,25.0,05.5,03.7,0664.7,31.1
2021-06-10T02:09:00Z,00000200,00000000,0001.32,0000.43,0000.48,0000.51,0000.18,0000.07,0000.13,0000.25,0000.37,18.4,24.9,05.6,03.8,0664.7,31.1
2021-06-10T02:10:00Z,00000200,00000000,0001.03,0000.48,0000.53,0000.76,0000.10,0000.08,0000.13,0000.03,0000.19,18.4,24.9,05.5,03.7,0664.7,31.1
2021-06-10T02:11:00Z,00000200,00000000,0001.27,0000.49,-000.07,0000.43,0000.12,-000.18,0000.13,0000.20,-000.12,18.4,24.9,05.5,03.7,0664.7,31.0
2021-06-10T02:12:00Z,00000200,00000000,0001.67,0000.89,0000.20,0000.18,0000.30,-000.17,0000.32,0000.39,0000.49,18.4,24.9,05.5,03.7,0664.7,31.1
2021-06-10T02:13:00Z,00000200,00000000,0001.36,0000.54,0000.20,0000.38,0000.20,0000.24,0000.31,0000.14,0000.25,18.4,24.9,05.5,03.7,0664.7,31.1
2021-06-10T02:14:00Z,00000200,00000000,0001.19,0000.44,0000.28,0000.42,0000.03,0000.34,0000.43,0000.27,0000.63,18.4,24.9,05.6,03.8,0664.7,31.0
2021-06-10T02:15:00Z,00000200,00000000,0001.17,0000.67,0000.10,-000.01,0000.05,-000.07,0000.45,0000.38,-000.01,18.4,24.9,05.5,03.7,0664.7,31.0
2021-06-10T02:16:00Z,00000200,00000000,0001.58,0000.61,0000.03,-000.23,0000.15,-000.16,0000.10,0000.25,0000.26,18.4,24.9,05.4,03.6,0664.7,31.1
2021-06-10T02:17:00Z,00000200,00000000,0001.22,0000.46,0000.44,0000.37,0000.14,0000.20,0000.43,0000.53,-000.15,18.4,24.9,05.5,03.7,0664.7,31.1
2021-06-10T02:18:00Z,00000200,00000000,0002.26,0000.69,0000.46,-000.12,0000.26,0000.12,0000.07,0000.01,0000.32,18.4,24.9,05.6,03.8,0664.7,31.1
2021-06-10T02:19:00Z,00000200,00000000,0001.20,0000.64,0000.15,0000.49,0000.13,-000.08,0000.30,0000.47,0000.26,18.4,24.9,05.5,03.7,0664.7,31.1
2021-06-10T02:20:00Z,00000200,00000000,0001.62,0000.50,0000.39,0000.17,0000.21,-000.13,0000.19,0000.20,0000.23,18.4,24.9,05.6,03.8,0664.7,31.1
2021-06-10T02:21:00Z,00000200,00000000,0001.47,0000.57,0000.29,0000.02,0000.36,0000.37,0000.75,0000.30,0000.19,18.4,24.9,05.6,03.8,0664.6,31.0
2021-06-10T02:22:00Z,00000200,00000000,0001.54,0000.43,0000.08,0000.52,0000.10,-000.02,0000.06,0000.02,0000.23,18.4,24.9,05.6,03.8,0664.6,31.0
2021-06-10T02:23:00Z,00000200,00000000,0000.94,0000.55,0000.19,0000.59,0000.22,-000.27,0000.41,0000.52,-000.00,18.4,24.9,05.7,03.8,0664.6,31.0
2021-06-10T02:24:00Z,00000200,00000000,0001.49,0000.65,0000.12,0000.22,0000.26,0000.18,0000.12,0000.21,0000.16,18.4,24.9,05.6,03.8,0664.6,31.0
2021-06-10T02:25:00Z,00000200,00000000,0000.74,0000.42,0000.21,0000.20,0000.22,-000.19,0000.43,0000.29,0000.48,18.4,24.9,05.5,03.7,0664.6,31.0
2021-06-10T02:26:00Z,00000200,00000000,0001.16,0000.67,0000.25,-000.17,0000.09,-000.07,0000.40,0000.17,0000.12,18.4,24.8,05.6,03.8,0664.6,31.0
2021-06-10T02:27:00Z,00000200,00000000,0000.94,0000.70,0000.11,0000.19,0000.13,-000.16,-000.03,0000.16,-000.17,18.4,24.8,05.6,03.8,0664.6,31.0
2021-06-10T02:28:00Z,00000200,00000000,0001.35,0000.59,0000.22,-000.13,0000.40,-000.02,-000.67,-000.61,-000.20,18.4,24.8,05.5,03.7,0664.6,31.0
2021-06-10T02:29:00Z,00000200,00000000,0000.95,0000.56,-000.12,0000.39,0000.12,-000.10,0000.01,-000.39,-000.59,18.4,24.8,05.0,03.4,0664.6,31.0
2021-06-10T02:30:00Z,00000200,00000000,0000.87,0000.45,0000.38,0000.51,0000.01,0000.47,0000.51,0000.61,0000.71,18.4,24.8,04.8,03.2,0664.6,31.0
2021-06-10T02:31:00Z,00000200,00000000,0001.89,0000.52,0000.21,-000.14,0000.00,-000.02,0000.44,0000.40,0000.14,18.4,24.8,05.0,03.4,0664.6,31.0
2021-06-10T02:32:00Z,00000200,00000000,0001.22,0000.67,0000.40,0000.22,-000.06,0000.04,0000.04,0000.23,0000.08,18.4,24.8,05.0,03.3,0664.6,31.0
2021-06-10T02:33:00Z,00000200,00000000,0001.01,0000.91,0000.23,0000.15,-000.02,-000.03,0000.30,0000.33,0000.33,18.4,24.8,05.0,03.4,0664.6,31.0
2021-06-10T02:34:00Z,00000200,00000000,0000.68,0000.57,0000.40,0000.49,0000.13,0000.02,0000.66,0000.20,0000.55,18.4,24.8,05.1,03.4,0664.6,31.0
2021-06-10T02:35:00Z,00000200,00000000,0000.91,0000.74,0000.14,0000.66,0000.20,-000.24,0000.09,0000.65,-000.11,18.3,24.8,05.1,03.4,0664.6,31.0
2021-06-10T02:36:00Z,00000200,00000000,0001.84,0000.32,-000.03,0000.68,0000.06,-000.07,0000.05,-000.12,0000.35,18.3,24.8,04.9,03.3,0664.6,31.0
2021-06-10T02:37:00Z,00000200,00000000,0001.25,0000.48,0000.09,-000.16,0000.22,0000.14,0000.04,-000.25,0000.18,18.3,24.8,05.0,03.4,0664.6,31.0
2021-06-10T02:38:00Z,00000200,00000000,0000.57,0000.57,0000.56,0000.42,0000.19,0000.29,0000.17,0000.65,-000.28,18.3,24.8,04.9,03.3,0664.6,31.0
2021-06-10T02:39:00Z,00000200,00000000,0002.05,0000.60,-000.13,-000.12,0000.27,0000.14,0000.49,0000.20,0000.28,18.3,24.7,04.9,03.3,0664.5,31.0
2021-06-10T02:40:00Z,00000200,00010000,0001.01,0000.77,0000.13,0000.48,0000.32,-000.23,0000.26,-000.13,0000.02,18.3,24.7,05.0,03.4,0664.5,31.1
2021-06-10T02:41:00Z,00000200,00000000,0000.59,0000.65,0000.08,0000.29,0000.12,-000.23,0000.31,0000.57,0000.80,18.3,24.7,05.0,03.4,0664.6,31.0
2021-06-10T02:42:00Z,00000200,00000000,0000.97,0000.93,0000.29,0000.62,0000.16,0000.09,0000.44,0000.03,-000.29,18.3,24.7,05.0,03.4,0664.6,31.0
2021-06-10T02:43:00Z,00000200,00000000,0002.03,0000.73,0000.30,0000.15,0000.18,0000.06,0000.06,0000.69,0000.27,18.3,24.7,05.1,03.4,0664.6,31.0
2021-06-10T02:44:00Z,00000200,00000000,0001.79,0000.63,0000.17,0000.26,0000.30,-000.01,0000.80,0000.60,0000.74,18.3,24.7,05.1,03.5,0664.6,31.0
2021-06-10T02:45:00Z,00000200,00000000,0001.78,0000.43,0000.63,0000.25,0000.19,0000.24,0000.08,0000.15,0000.18,18.3,24.7,05.1,03.5,0664.6,31.0
2021-06-10T02:46:00Z,00000200,00000000,0001.35,0000.62,0000.35,0000.30,0000.43,-000.05,0000.06,0000.16,0000.09,18.2,24.7,05.1,03.5,0664.6,31.0
2021-06-10T02:47:00Z,00000200,00000000,0001.82,0000.60,0000.00,0000.27,0000.25,0000.06,0000.45,0000.17,-000.02,18.2,24.7,05.1,03.4,0664.6,31.0
2021-06-10T02:48:00Z,00000200,00000000,0001.15,0000.51,-000.04,0000.71,-000.07,0000.16,0000.24,-000.37,0000.19,18.2,24.7,05.1,03.5,0664.5,31.0
2021-06-10T02:49:00Z,00000200,00000000,0000.97,0000.63,0000.05,0000.23,0000.06,0000.13,0000.20,0000.53,0000.27,18.2,24.7,05.1,03.5,0664.5,31.0
2021-06-10T02:50:00Z,00000200,00000000,0001.39,0000.71,0000.18,0000.14,0000.34,0000.35,0000.97,0000.92,0000.56,18.2,24.7,05.2,03.5,0664.5,31.0
2021-06-10T02:51:00Z,00000200,00000000,0001.31,0000.57,0000.43,0000.19,0000.09,0000.25,0000.21,0000.15,-000.04,18.2,24.7,05.3,03.6,0664.5,31.0
2021-06-10T02:52:00Z,00000200,00000000,0001.14,0000.48,0000.57,0000.38,0000.19,0000.14,0000.33,-000.11,0000.09,18.2,24.7,05.3,03.5,0664.5,31.0
2021-06-10T02:53:00Z,00000200,00000000,0001.00,0000.70,0000.37,0000.48,0000.13,-000.10,-000.15,0000.22,0000.43,18.2,24.7,05.4,03.6,0664.5,31.0
2021-06-10T02:54:00Z,00000200,00000000,0000.74,0000.47,0000.28,0000.13,0000.04,0000.20,0000.52,0000.57,0000.25,18.2,24.7,05.2,03.5,0664.5,31.0
2021-06-10T02:55:00Z,00000200,00000000,0001.18,0000.48,0000.43,0000.24,-000.27,0000.23,0000.34,0000.30,0000.17,18.2,24.6,05.2,03.5,0664.5,31.0
2021-06-10T02:56:00Z,00000200,00000000,0000.70,0000.60,0000.27,0000.56,0000.02,0000.17,0000.19,-000.18,-000.04,18.2,24.6,05.3,03.6,0664.5,31.0
2021-06-10T02:57:00Z,00000200,40000000,,,,,,,0000.08,0000.38,0000.42,18.2,24.7,05.2,03.5,0664.5,31.0
2021-06-10T02:58:00Z,00000200,60000000,,,,,,,0000.10,-000.11,-000.42,17.9,24.8,05.4,03.5,0663.5,31.0
2021-06-10T02:59:00Z,00000200,20000000,,,,,,,-000.39,-000.41,-000.26,17.9,24.9,05.1,03.3,0663.5,31.0
